Location: Berkeley
(37.8716°N, 122.2727°W)
Time: 00:52:12
(UTC-07:00)

ISS - Visible Passes

Search period start: 24 May 2017 00:00
Search period end: 03 June 2017 00:00
Orbit: 402 x 409 km, 51.6° (Epoch: 24 May)

Date Brightness Start Highest point End Pass type
(mag) Time Alt. Az. Time Alt. Az. Time Alt. Az.
24 May -1.4 03:53:48 10° NNW 03:56:37 26° NNE 03:59:26 10° E visible
24 May -2.5 22:08:36 10° WSW 22:11:46 42° NW 22:14:55 10° NE visible
24 May -0.2 23:48:00 10° NNW 23:48:57 11° NNW 23:49:54 10° N visible
25 May -0.8 03:02:06 10° NNW 03:04:22 17° NNE 03:06:37 10° ENE visible
25 May -4.0 04:37:54 10° NW 04:41:10 70° SW 04:44:24 10° SE visible
25 May -3.8 21:16:22 10° SW 21:19:39 83° NW 21:22:57 10° NE visible
25 May -0.5 22:54:37 10° WNW 22:56:34 15° NNW 22:58:32 10° NNE visible
26 May -0.3 02:10:33 10° N 02:12:01 12° NNE 02:13:29 10° NE visible
26 May -3.2 03:45:51 10° NW 03:49:05 57° NE 03:52:18 10° ESE visible
26 May -1.0 22:01:39 10° W 22:04:16 21° NNW 22:06:52 10° NNE visible
27 May -1.4 02:53:57 10° NNW 03:01:08 - ESE 02:55:16 19° NNW visible
27 May -2.3 04:34:31 20° SSW 04:34:31 20° SSW 04:36:04 10° S visible
27 May -1.9 21:08:58 10° W 21:12:01 34° NNW 21:15:04 10° NE visible
28 May -0.6 02:02:10 10° NNW 02:02:36 12° NNW 02:02:36 12° NNW visible
28 May -0.5 21:55:13 10° NW 21:56:52 13° NNW 21:58:31 10° N visible
29 May -0.4 01:10:30 10° NNW 01:11:25 13° N 01:11:25 13° N visible
29 May -0.8 21:02:05 10° WNW 21:04:29 18° NNW 21:06:53 10° NNE visible
30 May -0.4 00:19:13 10° N 00:19:52 10° NNE 00:20:32 10° NNE visible
31 May -0.4 01:02:08 10° NNW 01:02:29 12° NNW 01:02:29 12° NNW visible
31 May -0.6 20:55:46 10° NW 20:57:03 12° NNW 20:58:20 10° N visible
01 Jun -0.8 00:10:22 10° NNW 00:11:51 15° N 00:11:51 15° N visible
01 Jun -0.7 23:18:49 10° N 23:20:01 11° NNE 23:21:13 10° NE visible
